Tracking 18980 objects as of 21-Feb-2018
HD Live streaming from Space Station
objects crossing your sky now

RADIATION SAT (5E 1)

Track RADIATION SAT (5E 1) now!
10-day predictions
RADIATION SAT (5E 1) is classified as:


NORAD ID: 671
Int'l Code: 1963-038C
Perigee: 1,067.2 km
Apogee: 1,130.0 km
Inclination: 90.1 °
Period: 107.1 minutes
Semi major axis: 7469 km
RCS: 1.713 m2 (large)
Launch date: September 28, 1963
Source: United States (US)
Launch site: AIR FORCE WESTERN TEST RANGE (AFWTR)
aabbcc
Your satellite tracking list
Your tracking list is empty




NASA's NSSDC Master Catalog

Two Line Element Set (TLE):
1   671U 63038C   18051.88321220 +.00000064 +00000-0 +92744-4 0  9995
2   671 090.0752 326.8469 0042040 054.5198 357.6591 13.44797598666763
Source of the keplerian elements: AFSPC